| time (UTC) | temp F | wind direction | speed MPH | gust MPH | rain 1hr in | rain 24hr in | rain mn in | humidity % | barometer mb |
| 20260506231204 | 57 | 210 | 6.0 | 15.0 | 0.04 | 0.14 | 0.14 | 99 | 1003.7 |
| 20260506230204 | 58 | 210 | 3.0 | 12.0 | 0.05 | 0.14 | 0.14 | 98 | 1003.6 |
| 20260506225703 | 58 | 200 | 6.0 | 12.0 | 0.04 | 0.13 | 0.13 | 98 | 1003.6 |
| 20260506225204 | 58 | 200 | 3.0 | 8.0 | 0.04 | 0.13 | 0.13 | 98 | 1003.7 |
| 20260506224704 | 58 | 200 | 5.0 | 12.0 | 0.04 | 0.13 | 0.13 | 98 | 1003.7 |
| 20260506224203 | 58 | 200 | 3.0 | 10.0 | 0.04 | 0.13 | 0.13 | 98 | 1003.7 |
| 20260506223704 | 58 | 200 | 5.0 | 9.0 | 0.03 | 0.12 | 0.12 | 98 | 1003.7 |
| 20260506223203 | 58 | 200 | 3.0 | 10.0 | 0.02 | 0.11 | 0.11 | 98 | 1003.7 |
| 20260506222704 | 58 | 200 | 5.0 | 13.0 | 0.01 | 0.10 | 0.10 | 98 | 1003.7 |
| 20260506221704 | 58 | 200 | 6.0 | 12.0 | 0.02 | 0.10 | 0.10 | 98 | 1003.9 |
| 20260506220203 | 58 | 200 | 4.0 | 8.0 | 0.02 | 0.09 | 0.09 | 98 | 1003.9 |
| 20260506215704 | 58 | 200 | 4.0 | 14.0 | 0.02 | 0.09 | 0.09 | 97 | 1004.1 |
| 20260506215203 | 58 | 200 | 4.0 | 12.0 | 0.02 | 0.09 | 0.09 | 97 | 1004.1 |
| 20260506214703 | 58 | 200 | 5.0 | 14.0 | 0.02 | 0.09 | 0.09 | 97 | 1004.0 |
| 20260506213704 | 58 | 200 | 5.0 | 12.0 | 0.02 | 0.09 | 0.09 | 97 | 1004.0 |
| 20260506213203 | 58 | 200 | 6.0 | 13.0 | 0.02 | 0.09 | 0.09 | 97 | 1004.0 |
| 20260506212704 | 58 | 200 | 6.0 | 12.0 | 0.02 | 0.09 | 0.09 | 97 | 1004.2 |
| 20260506211704 | 58 | 200 | 5.0 | 13.0 | 0.01 | 0.08 | 0.08 | 97 | 1004.4 |
| 20260506210704 | 59 | 200 | 3.0 | 9.0 | 0.00 | 0.07 | 0.07 | 97 | 1004.4 |
| 20260506210204 | 58 | 200 | 5.0 | 12.0 | 0.00 | 0.07 | 0.07 | 97 | 1004.3 |
| 20260506204703 | 58 | 200 | 5.0 | 13.0 | 0.00 | 0.07 | 0.07 | 96 | 1004.6 |
| 20260506204204 | 58 | 200 | 6.0 | 14.0 | 0.00 | 0.07 | 0.07 | 96 | 1004.6 |
| 20260506203703 | 58 | 200 | 6.0 | 13.0 | 0.00 | 0.07 | 0.07 | 96 | 1004.6 |
| 20260506203204 | 58 | 200 | 5.0 | 12.0 | 0.00 | 0.07 | 0.07 | 96 | 1004.6 |
| 20260506202703 | 58 | 200 | 5.0 | 15.0 | 0.00 | 0.07 | 0.07 | 96 | 1004.5 |
| 20260506202204 | 58 | 200 | 7.0 | 14.0 | 0.01 | 0.07 | 0.07 | 95 | 1004.6 |
| 20260506201704 | 58 | 200 | 7.0 | 13.0 | 0.01 | 0.07 | 0.07 | 95 | 1004.6 |
| 20260506201204 | 59 | 200 | 6.0 | 13.0 | 0.01 | 0.07 | 0.07 | 95 | 1004.6 |
| 20260506200703 | 58 | 200 | 7.0 | 18.0 | 0.02 | 0.07 | 0.07 | 95 | 1004.6 |
| 20260506200204 | 58 | 200 | 7.0 | 13.0 | 0.02 | 0.07 | 0.07 | 95 | 1004.7 |
| 20260506195703 | 59 | 190 | 6.0 | 12.0 | 0.03 | 0.07 | 0.07 | 95 | 1004.8 |
| 20260506195204 | 59 | 190 | 6.0 | 12.0 | 0.03 | 0.07 | 0.07 | 95 | 1004.8 |
| 20260506193704 | 59 | 190 | 5.0 | 15.0 | 0.05 | 0.07 | 0.07 | 94 | 1004.8 |
| 20260506193203 | 59 | 190 | 6.0 | 13.0 | 0.05 | 0.07 | 0.07 | 94 | 1004.9 |
| 20260506192704 | 59 | 190 | 6.0 | 14.0 | 0.06 | 0.07 | 0.07 | 94 | 1005.0 |
| 20260506192204 | 59 | 190 | 6.0 | 12.0 | 0.05 | 0.06 | 0.06 | 95 | 1005.1 |
| 20260506191704 | 59 | 190 | 4.0 | 12.0 | 0.06 | 0.06 | 0.06 | 94 | 1005.0 |
| 20260506191204 | 59 | 190 | 5.0 | 9.0 | 0.06 | 0.06 | 0.06 | 94 | 1004.9 |
| 20260506190204 | 60 | 190 | 7.0 | 16.0 | 0.05 | 0.05 | 0.05 | 92 | 1004.9 |
| 20260506185703 | 60 | 210 | 3.0 | 12.0 | 0.04 | 0.04 | 0.04 | 92 | 1005.0 |
| 20260506185204 | 61 | 210 | 6.0 | 13.0 | 0.04 | 0.04 | 0.04 | 91 | 1005.0 |
| 20260506184703 | 61 | 210 | 4.0 | 13.0 | 0.03 | 0.03 | 0.03 | 90 | 1004.9 |
| 20260506184204 | 61 | 210 | 5.0 | 16.0 | 0.03 | 0.03 | 0.03 | 89 | 1005.0 |
| 20260506183704 | 62 | 210 | 4.0 | 16.0 | 0.02 | 0.02 | 0.02 | 89 | 1005.0 |
| 20260506183204 | 62 | 210 | 4.0 | 10.0 | 0.02 | 0.02 | 0.02 | 88 | 1005.1 |
| 20260506182204 | 63 | 210 | 5.0 | 12.0 | 0.01 | 0.01 | 0.01 | 86 | 1005.3 |
| 20260506181704 | 63 | 210 | 4.0 | 13.0 | 0.00 | 0.00 | 0.00 | 85 | 1005.5 |
| 20260506181203 | 64 | 210 | 7.0 | 16.0 | 0.00 | 0.00 | 0.00 | 84 | 1005.4 |
| 20260506180703 | 64 | 210 | 6.0 | 14.0 | 0.00 | 0.00 | 0.00 | 83 | 1005.6 |
| 20260506175704 | 65 | 210 | 7.0 | 14.0 | 0.00 | 0.00 | 0.00 | 80 | 1005.5 |
| 20260506175203 | 65 | 210 | 5.0 | 13.0 | 0.00 | 0.00 | 0.00 | 79 | 1005.4 |
| 20260506174704 | 66 | 210 | 7.0 | 18.0 | 0.00 | 0.00 | 0.00 | 77 | 1005.5 |
| 20260506173704 | 67 | 210 | 13.0 | 28.0 | 0.00 | 0.00 | 0.00 | 73 | 1005.6 |
| 20260506172704 | 69 | 210 | 8.0 | 21.0 | 0.00 | 0.00 | 0.00 | 69 | 1005.4 |
| 20260506172204 | 69 | 210 | 10.0 | 17.0 | 0.00 | 0.00 | 0.00 | 68 | 1005.5 |
| 20260506171203 | 69 | 210 | 8.0 | 20.0 | 0.00 | 0.00 | 0.00 | 66 | 1005.4 |
| 20260506170704 | 69 | 210 | 10.0 | 22.0 | 0.00 | 0.00 | 0.00 | 67 | 1005.4 |
| 20260506165704 | 69 | 200 | 5.0 | 14.0 | 0.00 | 0.00 | 0.00 | 67 | 1005.4 |
| 20260506165204 | 69 | 200 | 9.0 | 22.0 | 0.00 | 0.00 | 0.00 | 65 | 1005.4 |
| 20260506164704 | 70 | 200 | 8.0 | 18.0 | 0.00 | 0.00 | 0.00 | 65 | 1005.5 |
| 20260506164204 | 70 | 200 | 7.0 | 18.0 | 0.00 | 0.00 | 0.00 | 66 | 1005.7 |
| 20260506163704 | 70 | 200 | 5.0 | 14.0 | 0.00 | 0.00 | 0.00 | 67 | 1005.7 |
| 20260506163204 | 69 | 200 | 7.0 | 17.0 | 0.00 | 0.00 | 0.00 | 67 | 1005.7 |
| 20260506162204 | 69 | 200 | 7.0 | 15.0 | 0.00 | 0.00 | 0.00 | 66 | 1005.8 |
| 20260506161703 | 70 | 200 | 10.0 | 20.0 | 0.00 | 0.00 | 0.00 | 65 | 1005.9 |
| 20260506161204 | 69 | 200 | 10.0 | 30.0 | 0.00 | 0.00 | 0.00 | 65 | 1005.9 |
| 20260506160204 | 69 | 200 | 11.0 | 25.0 | 0.00 | 0.00 | 0.00 | 65 | 1006.0 |
| 20260506155704 | 69 | 210 | 10.0 | 22.0 | 0.00 | 0.00 | 0.00 | 67 | 1006.1 |
| 20260506155203 | 69 | 210 | 6.0 | 20.0 | 0.00 | 0.00 | 0.00 | 67 | 1006.1 |
| 20260506154703 | 69 | 210 | 9.0 | 21.0 | 0.00 | 0.00 | 0.00 | 68 | 1006.1 |
| 20260506154204 | 69 | 210 | 7.0 | 20.0 | 0.00 | 0.00 | 0.00 | 68 | 1006.1 |
| 20260506153703 | 69 | 210 | 8.0 | 20.0 | 0.00 | 0.00 | 0.00 | 69 | 1006.2 |
| 20260506152703 | 68 | 210 | 7.0 | 15.0 | 0.00 | 0.00 | 0.00 | 70 | 1006.3 |
| 20260506151704 | 68 | 210 | 7.0 | 20.0 | 0.00 | 0.00 | 0.00 | 69 | 1006.5 |
| 20260506151204 | 69 | 210 | 4.0 | 10.0 | 0.00 | 0.00 | 0.00 | 70 | 1006.5 |
| 20260506150703 | 69 | 210 | 6.0 | 15.0 | 0.00 | 0.00 | 0.00 | 70 | 1006.6 |
| 20260506150204 | 68 | 210 | 7.0 | 15.0 | 0.00 | 0.00 | 0.00 | 70 | 1006.8 |
| 20260506145703 | 68 | 180 | 7.0 | 15.0 | 0.00 | 0.00 | 0.00 | 71 | 1006.7 |
| 20260506144704 | 68 | 180 | 6.0 | 14.0 | 0.00 | 0.00 | 0.00 | 73 | 1006.9 |
| 20260506144203 | 67 | 180 | 10.0 | 17.0 | 0.00 | 0.00 | 0.00 | 73 | 1006.8 |
| 20260506142704 | 66 | 180 | 6.0 | 16.0 | 0.00 | 0.00 | 0.00 | 76 | 1006.8 |
| 20260506142204 | 66 | 180 | 6.0 | 16.0 | 0.00 | 0.00 | 0.00 | 76 | 1006.8 |
| 20260506141704 | 66 | 180 | 6.0 | 12.0 | 0.00 | 0.00 | 0.00 | 77 | 1006.8 |
| 20260506141203 | 66 | 180 | 9.0 | 14.0 | 0.00 | 0.00 | 0.00 | 76 | 1006.9 |
| 20260506140704 | 65 | 180 | 5.0 | 14.0 | 0.00 | 0.00 | 0.00 | 77 | 1006.7 |
| 20260506140203 | 65 | 180 | 10.0 | 20.0 | 0.00 | 0.00 | 0.00 | 77 | 1006.7 |
| 20260506135704 | 65 | 200 | 5.0 | 12.0 | 0.00 | 0.00 | 0.00 | 79 | 1006.7 |
| 20260506135203 | 65 | 200 | 7.0 | 12.0 | 0.00 | 0.00 | 0.00 | 80 | 1006.7 |
| 20260506134204 | 64 | 200 | 6.0 | 18.0 | 0.00 | 0.00 | 0.00 | 80 | 1006.9 |
| 20260506133204 | 63 | 200 | 4.0 | 12.0 | 0.00 | 0.00 | 0.00 | 82 | 1006.9 |
| 20260506132703 | 63 | 200 | 7.0 | 12.0 | 0.00 | 0.00 | 0.00 | 82 | 1006.8 |
| 20260506132204 | 63 | 200 | 7.0 | 15.0 | 0.00 | 0.00 | 0.00 | 83 | 1007.0 |
| 20260506131703 | 62 | 200 | 4.0 | 12.0 | 0.00 | 0.00 | 0.00 | 83 | 1007.4 |
| 20260506131204 | 62 | 200 | 5.0 | 15.0 | 0.00 | 0.00 | 0.00 | 85 | 1007.6 |
| 20260506130204 | 61 | 200 | 5.0 | 14.0 | 0.00 | 0.00 | 0.00 | 86 | 1007.6 |
| 20260506125203 | 61 | 210 | 6.0 | 16.0 | 0.00 | 0.00 | 0.00 | 85 | 1007.6 |
| 20260506124703 | 61 | 210 | 5.0 | 17.0 | 0.00 | 0.00 | 0.00 | 85 | 1007.5 |
| 20260506124204 | 61 | 210 | 9.0 | 16.0 | 0.00 | 0.00 | 0.00 | 85 | 1007.5 |
| 20260506123704 | 61 | 210 | 5.0 | 12.0 | 0.00 | 0.00 | 0.00 | 85 | 1007.4 |
| 20260506123204 | 61 | 210 | 5.0 | 12.0 | 0.00 | 0.00 | 0.00 | 87 | 1007.5 |
| 20260506122704 | 60 | 210 | 6.0 | 13.0 | 0.00 | 0.00 | 0.00 | 88 | 1007.6 |
| 20260506121703 | 59 | 210 | 7.0 | 14.0 | 0.00 | 0.00 | 0.00 | 87 | 1007.5 |
| 20260506121204 | 60 | 210 | 5.0 | 14.0 | 0.00 | 0.00 | 0.00 | 87 | 1007.8 |
| 20260506115703 | 59 | 220 | 9.0 | 17.0 | 0.00 | 0.00 | 0.00 | 88 | 1007.5 |
| 20260506115204 | 59 | 220 | 6.0 | 17.0 | 0.00 | 0.00 | 0.00 | 89 | 1007.6 |
| 20260506114704 | 58 | 220 | 6.0 | 13.0 | 0.00 | 0.00 | 0.00 | 89 | 1007.7 |
| 20260506114204 | 58 | 220 | 5.0 | 12.0 | 0.00 | 0.00 | 0.00 | 90 | 1007.6 |
| 20260506113704 | 58 | 220 | 6.0 | 13.0 | 0.00 | 0.00 | 0.00 | 90 | 1007.9 |
| 20260506113204 | 57 | 220 | 6.0 | 14.0 | 0.00 | 0.00 | 0.00 | 90 | 1007.8 |
| 20260506112704 | 57 | 220 | 7.0 | 14.0 | 0.00 | 0.00 | 0.00 | 91 | 1007.9 |
| 20260506112203 | 57 | 220 | 9.0 | 16.0 | 0.00 | 0.00 | 0.00 | 90 | 1007.7 |
| 20260506111204 | 57 | 220 | 6.0 | 13.0 | 0.00 | 0.00 | 0.00 | 90 | 1008.1 |
| 20260506110704 | 57 | 220 | 7.0 | 15.0 | 0.00 | 0.00 | 0.00 | 91 | 1008.1 |
| 20260506110204 | 57 | 220 | 6.0 | 15.0 | 0.00 | 0.00 | 0.00 | 91 | 1008.0 |
| 20260506105704 | 55 | 210 | 6.0 | 15.0 | 0.00 | 0.00 | 0.00 | 91 | 1007.8 |
| 20260506105203 | 55 | 210 | 5.0 | 14.0 | 0.00 | 0.00 | 0.00 | 91 | 1007.9 |
| 20260506104704 | 55 | 210 | 7.0 | 18.0 | 0.00 | 0.00 | 0.00 | 91 | 1007.8 |
| 20260506104204 | 55 | 210 | 6.0 | 14.0 | 0.00 | 0.00 | 0.00 | 92 | 1007.7 |
| 20260506103204 | 55 | 210 | 5.0 | 14.0 | 0.00 | 0.00 | 0.00 | 92 | 1007.8 |
| 20260506102204 | 55 | 210 | 5.0 | 9.0 | 0.00 | 0.00 | 0.00 | 91 | 1007.7 |
| 20260506101704 | 55 | 210 | 7.0 | 16.0 | 0.00 | 0.00 | 0.00 | 91 | 1007.7 |
| 20260506100704 | 55 | 210 | 6.0 | 20.0 | 0.00 | 0.00 | 0.00 | 91 | 1007.8 |
| 20260506100204 | 55 | 210 | 6.0 | 16.0 | 0.00 | 0.00 | 0.00 | 91 | 1007.7 |
| 20260506095704 | 56 | 210 | 5.0 | 15.0 | 0.00 | 0.00 | 0.00 | 91 | 1007.7 |
| 20260506094704 | 56 | 210 | 6.0 | 20.0 | 0.00 | 0.00 | 0.00 | 91 | 1007.6 |
| 20260506094203 | 56 | 210 | 6.0 | 15.0 | 0.00 | 0.00 | 0.00 | 91 | 1007.5 |
| 20260506093703 | 56 | 210 | 5.0 | 14.0 | 0.00 | 0.00 | 0.00 | 91 | 1007.6 |
| 20260506093204 | 56 | 210 | 6.0 | 17.0 | 0.00 | 0.00 | 0.00 | 90 | 1007.6 |
| 20260506092704 | 56 | 210 | 5.0 | 15.0 | 0.00 | 0.00 | 0.00 | 90 | 1007.6 |
| 20260506092204 | 56 | 210 | 4.0 | 12.0 | 0.00 | 0.00 | 0.00 | 90 | 1007.5 |
| 20260506091704 | 56 | 210 | 6.0 | 16.0 | 0.00 | 0.00 | 0.00 | 90 | 1007.6 |
| 20260506091204 | 56 | 210 | 9.0 | 16.0 | 0.00 | 0.00 | 0.00 | 90 | 1007.5 |
| 20260506090204 | 56 | 210 | 6.0 | 12.0 | 0.00 | 0.00 | 0.00 | 90 | 1007.6 |
| 20260506085703 | 56 | 210 | 6.0 | 13.0 | 0.00 | 0.00 | 0.00 | 90 | 1007.5 |
| 20260506085204 | 57 | 210 | 4.0 | 16.0 | 0.00 | 0.00 | 0.00 | 89 | 1007.7 |
| 20260506084704 | 57 | 210 | 7.0 | 15.0 | 0.00 | 0.00 | 0.00 | 89 | 1007.7 |
| 20260506084204 | 57 | 210 | 8.0 | 18.0 | 0.00 | 0.00 | 0.00 | 89 | 1007.6 |
| 20260506083704 | 57 | 210 | 6.0 | 15.0 | 0.00 | 0.00 | 0.00 | 88 | 1007.8 |
| 20260506083203 | 57 | 210 | 4.0 | 13.0 | 0.00 | 0.00 | 0.00 | 88 | 1007.8 |
| 20260506082704 | 57 | 210 | 5.0 | 16.0 | 0.00 | 0.00 | 0.00 | 88 | 1007.8 |
| 20260506082203 | 57 | 210 | 6.0 | 12.0 | 0.00 | 0.00 | 0.00 | 88 | 1007.9 |
| 20260506081203 | 57 | 210 | 7.0 | 13.0 | 0.00 | 0.00 | 0.00 | 87 | 1007.7 |
| 20260506080703 | 57 | 210 | 7.0 | 17.0 | 0.00 | 0.00 | 0.00 | 87 | 1007.7 |
| 20260506080204 | 57 | 210 | 6.0 | 15.0 | 0.00 | 0.00 | 0.00 | 87 | 1007.7 |
| 20260506073203 | 58 | 210 | 7.0 | 14.0 | 0.00 | 0.00 | 0.00 | 85 | 1007.7 |
| 20260506072703 | 58 | 210 | 10.0 | 15.0 | 0.00 | 0.00 | 0.00 | 85 | 1007.7 |
| 20260506072204 | 58 | 210 | 10.0 | 20.0 | 0.00 | 0.00 | 0.00 | 85 | 1007.7 |
| 20260506071704 | 58 | 210 | 6.0 | 13.0 | 0.00 | 0.00 | 0.00 | 85 | 1007.7 |
| 20260506071204 | 58 | 210 | 6.0 | 14.0 | 0.00 | 0.00 | 0.00 | 85 | 1007.6 |
| 20260506070704 | 58 | 210 | 7.0 | 21.0 | 0.00 | 0.00 | 0.00 | 84 | 1007.6 |
| 20260506070203 | 58 | 210 | 6.0 | 14.0 | 0.00 | 0.00 | 0.00 | 84 | 1007.5 |
| 20260506061704 | 59 | 210 | 7.0 | 15.0 | 0.00 | 0.00 | 0.00 | 81 | 1007.5 |
| 20260506060704 | 59 | 210 | 6.0 | 17.0 | 0.00 | 0.00 | 0.00 | 81 | 1007.5 |
| 20260506060203 | 60 | 210 | 7.0 | 17.0 | 0.00 | 0.00 | 0.00 | 81 | 1007.5 |
| 20260506051204 | 61 | 210 | 10.0 | 17.0 | 0.00 | 0.00 | 0.00 | 77 | 1007.8 |
| 20260506050703 | 60 | 210 | 10.0 | 20.0 | 0.00 | 0.00 | 0.00 | 77 | 1007.8 |
| 20260506050204 | 60 | 210 | 6.0 | 16.0 | 0.00 | 0.00 | 0.00 | 77 | 1007.8 |
| 20260506044703 | 60 | 210 | 7.0 | 16.0 | 0.00 | 0.00 | 0.00 | 76 | 1008.1 |
| 20260506044204 | 60 | 210 | 7.0 | 15.0 | 0.00 | 0.00 | 0.00 | 76 | 1008.0 |
| 20260506043704 | 61 | 210 | 5.0 | 16.0 | 0.00 | 0.00 | 0.00 | 76 | 1008.0 |
| 20260506043204 | 61 | 210 | 8.0 | 21.0 | 0.00 | 0.00 | 0.00 | 75 | 1008.1 |
| 20260506042704 | 60 | 210 | 9.0 | 20.0 | 0.00 | 0.00 | 0.00 | 76 | 1008.1 |
| 20260506042204 | 60 | 210 | 11.0 | 20.0 | 0.00 | 0.00 | 0.00 | 76 | 1008.1 |
| 20260506041203 | 60 | 210 | 9.0 | 14.0 | 0.00 | 0.00 | 0.00 | 76 | 1008.0 |
| 20260506040204 | 60 | 210 | 7.0 | 13.0 | 0.00 | 0.00 | 0.00 | 76 | 1008.1 |
| 20260506035704 | 60 | 210 | 6.0 | 16.0 | 0.00 | 0.00 | 0.00 | 76 | 1008.1 |
| 20260506035204 | 60 | 210 | 6.0 | 13.0 | 0.00 | 0.00 | 0.00 | 76 | 1008.1 |
| 20260506034204 | 60 | 210 | 7.0 | 16.0 | 0.00 | 0.00 | 0.00 | 76 | 1008.1 |
| 20260506033704 | 60 | 210 | 8.0 | 15.0 | 0.00 | 0.00 | 0.00 | 76 | 1008.0 |
| 20260506033203 | 60 | 210 | 8.0 | 20.0 | 0.00 | 0.00 | 0.00 | 76 | 1008.0 |
| 20260506032204 | 60 | 210 | 6.0 | 18.0 | 0.00 | 0.00 | 0.00 | 76 | 1008.0 |
| 20260506031704 | 59 | 210 | 9.0 | 20.0 | 0.00 | 0.00 | 0.00 | 76 | 1007.8 |
| 20260506031204 | 59 | 210 | 7.0 | 20.0 | 0.00 | 0.00 | 0.00 | 76 | 1007.8 |
| 20260506030704 | 59 | 210 | 9.0 | 16.0 | 0.00 | 0.00 | 0.00 | 76 | 1007.9 |
| 20260506030204 | 59 | 210 | 6.0 | 16.0 | 0.00 | 0.00 | 0.00 | 76 | 1007.9 |
| 20260506025204 | 60 | 220 | 7.0 | 13.0 | 0.00 | 0.00 | 0.00 | 76 | 1007.9 |
| 20260506024704 | 60 | 220 | 7.0 | 18.0 | 0.00 | 0.00 | 0.00 | 76 | 1007.9 |
| 20260506024204 | 60 | 220 | 10.0 | 16.0 | 0.00 | 0.00 | 0.00 | 75 | 1008.0 |
| 20260506023704 | 60 | 220 | 9.0 | 15.0 | 0.00 | 0.00 | 0.00 | 75 | 1007.9 |
| 20260506023203 | 60 | 220 | 6.0 | 14.0 | 0.00 | 0.00 | 0.00 | 75 | 1007.9 |
| 20260506022704 | 60 | 220 | 8.0 | 22.0 | 0.00 | 0.00 | 0.00 | 74 | 1007.9 |
| 20260506022203 | 60 | 220 | 8.0 | 17.0 | 0.00 | 0.00 | 0.00 | 74 | 1008.0 |
| 20260506021204 | 60 | 220 | 9.0 | 18.0 | 0.00 | 0.00 | 0.00 | 73 | 1007.9 |
| 20260506020704 | 61 | 220 | 9.0 | 20.0 | 0.00 | 0.00 | 0.00 | 73 | 1007.9 |
| 20260506020204 | 61 | 220 | 7.0 | 20.0 | 0.00 | 0.00 | 0.00 | 72 | 1007.9 |
| 20260506015704 | 61 | 210 | 7.0 | 17.0 | 0.00 | 0.00 | 0.00 | 72 | 1007.9 |
| 20260506015205 | 61 | 210 | 7.0 | 18.0 | 0.00 | 0.00 | 0.00 | 72 | 1007.8 |
| 20260506014704 | 61 | 210 | 7.0 | 16.0 | 0.00 | 0.00 | 0.00 | 71 | 1007.7 |
| 20260506014203 | 62 | 210 | 9.0 | 20.0 | 0.00 | 0.00 | 0.00 | 71 | 1007.7 |
| 20260506013703 | 62 | 210 | 9.0 | 20.0 | 0.00 | 0.00 | 0.00 | 71 | 1007.7 |
| 20260506012704 | 62 | 210 | 7.0 | 20.0 | 0.00 | 0.00 | 0.00 | 70 | 1007.5 |
| 20260506012204 | 62 | 210 | 8.0 | 15.0 | 0.00 | 0.00 | 0.00 | 70 | 1007.4 |
| 20260506011703 | 62 | 210 | 8.0 | 15.0 | 0.00 | 0.00 | 0.00 | 70 | 1007.4 |
| 20260506011204 | 62 | 210 | 7.0 | 17.0 | 0.00 | 0.00 | 0.00 | 70 | 1007.4 |
| 20260506010704 | 62 | 210 | 7.0 | 16.0 | 0.00 | 0.00 | 0.00 | 70 | 1007.3 |
| 20260506010203 | 63 | 210 | 9.0 | 16.0 | 0.00 | 0.00 | 0.00 | 69 | 1007.4 |
| 20260506005704 | 63 | 200 | 6.0 | 16.0 | 0.00 | 0.00 | 0.00 | 69 | 1007.2 |
| 20260506005204 | 63 | 200 | 9.0 | 17.0 | 0.00 | 0.00 | 0.00 | 68 | 1007.2 |
| 20260506004704 | 63 | 200 | 9.0 | 20.0 | 0.00 | 0.00 | 0.00 | 68 | 1007.2 |
| 20260506004203 | 64 | 200 | 8.0 | 17.0 | 0.00 | 0.00 | 0.00 | 68 | 1007.2 |
| 20260506003704 | 64 | 200 | 9.0 | 17.0 | 0.00 | 0.00 | 0.00 | 67 | 1007.2 |
| 20260506003203 | 65 | 200 | 8.0 | 20.0 | 0.00 | 0.00 | 0.00 | 66 | 1007.0 |
| 20260506002704 | 65 | 200 | 6.0 | 17.0 | 0.00 | 0.00 | 0.00 | 66 | 1006.8 |
| 20260506002204 | 65 | 200 | 7.0 | 13.0 | 0.00 | 0.00 | 0.00 | 62 | 1006.7 |
| 20260506001703 | 66 | 200 | 8.0 | 15.0 | 0.00 | 0.00 | 0.00 | 64 | 1006.6 |
| 20260506000205 | 67 | 200 | 9.0 | 20.0 | 0.00 | 0.00 | 0.00 | 61 | 1006.3 |
| 20260505235704 | 67 | 200 | 9.0 | 20.0 | 0.00 | 0.00 | 0.00 | 61 | 1006.2 |
| 20260505235203 | 67 | 200 | 11.0 | 20.0 | 0.00 | 0.00 | 0.00 | 60 | 1006.2 |
| 20260505234204 | 68 | 200 | 8.0 | 20.0 | 0.00 | 0.00 | 0.00 | 60 | 1006.1 |
| 20260505233703 | 68 | 200 | 7.0 | 20.0 | 0.00 | 0.00 | 0.00 | 59 | 1006.1 |
| 20260505233203 | 68 | 200 | 9.0 | 17.0 | 0.00 | 0.00 | 0.00 | 59 | 1005.9 |
| 20260505232704 | 69 | 200 | 9.0 | 20.0 | 0.00 | 0.00 | 0.00 | 58 | 1005.9 |
| 20260505232203 | 69 | 200 | 12.0 | 21.0 | 0.00 | 0.00 | 0.00 | 58 | 1005.9 |
| 20260505231704 | 69 | 200 | 8.0 | 22.0 | 0.00 | 0.00 | 0.00 | 57 | 1005.8 |